Starlink 4783

operational
NORAD ID: 53835 Int'l Des: 2022-114 Owner: SPXS Country: US Constellation: starlink
LEOCIRCULAR

About Starlink 4783

Description loading...

Live Position

Loading 3D Globe...

Upcoming Passes

Altitude History

Altitude vs Time

uPlot chart will show altitude changes over time

Two-Line Element Set

1 53835U 22114T 25258.28105323 -.00000679 00000-0 -24585-4 0 9992
2 53835 53.2194 11.3511 0001215 91.2064 268.9067 15.08835259166358
Epoch: Sep 15, 2025 • Age: 11 hours

Current Status

Altitude 540.2 km
Velocity 7.59 km/s
Sub-Earth Point 4.34°N, 109.09°E
Launch Date Sep 19, 2022
Age 2.9 years
Type internet

Technical Details

Classification Payload
Mass 305.00 kg
Dry Mass 290.00 kg
Total Mass 305.00 kg
Length 0.20 m
Diameter 2.80 m
Span 9.00 m
Shape Box + pan
Manufacturer SPXS
Bus Type Starlink
Phase Status In Orbit
Owner/State SPXS/US

Large Constellations

Loading constellations...